Location: Cosy Dell
(34.2789°N, 117.4537°W)
Time: 21:03:09
(UTC+00:00)

Cosmos 2082 Rocket - Pass Details

Date: 14 July 2020
Orbit: 834 x 853 km, 71.0° (Epoch: 13 August)

Event Time Altitude Azimuth Distance (km) Brightness Sun altitude
Exits shadow 10:52:02 26° 269° (W) 1,607 3.3 -20.2°
Maximum altitude 10:53:38 30° 298° (WNW) 1,471 3.3 -20.0°
Drops below altitude 10° 10:58:38 10° 360° (N) 2,484 5.2 -19.2°
Sets 11:01:23 0° 10° (N) 3,421 6.3 -18.8°
